Location: Borovka
(49.7741°N, 14.5280°E)
Time: 18:35:34
(UTC+00:00)

RESURS DK-1 - Pass Details

Date: 17 November 2025
Orbit: 524 x 535 km, 69.9° (Epoch: 10 December)

Event Time Altitude Azimuth Distance (km) Brightness Sun altitude
Rises 17:04:04 0° 324° (NW) 2,698 6.2 -17.2°
Reaches altitude 10° 17:06:20 10° 318° (NW) 1,802 5.4 -17.6°
Maximum altitude 17:10:08 43° 247° (WSW) 757 3.5 -18.2°
Drops below altitude 10° 17:13:56 10° 175° (S) 1,786 4.9 -18.8°
Sets 17:16:10 0° 168° (SSE) 2,671 5.8 -19.2°
